Regional Weather Roundup
Issued by NWS

Home | Current Version | Previous Version | Graphics & Text | Print | Product List | Glossary On
Versions: 1 2 3 4 5 6 7 8 9 10 11 12 13 14 15 16 17 18 19 20 21 22 23 24 25 26 27 28 29 30 31 32 33 34 35 36 37 38 39 40 41 42 43 44 45 46 47 48 49 50
000
ASUS43 KDTX 240510
RWRMI
MICHIGAN HOURLY REGIONAL WEATHER ROUNDUP
NATIONAL WEATHER SERVICE DETROIT/PONTIAC MI
100 AM EDT THU JUL 24 2014

NOTE: "FAIR" INDICATES FEW OR NO CLOUDS BELOW 12,000 FEET WITH NO
SIGNIFICANT WEATHER AND/OR OBSTRUCTION TO VISIBILITY.

MIZ047>049-052>055-059>063-066>070-074>076-081>083-240600-
SOUTHEAST LOWER MICHIGAN

CITY           SKY/WX    TMP DP  RH WIND       PRES   REMARKS
ADRIAN         MOCLDY    63  55  75 NE6       30.10R
ALMA           PTCLDY    56  53  90 CALM      30.13S
ANN ARBOR      MOCLDY    61  52  72 NE7       30.09S
BAD AXE        PTCLDY    57  52  81 N3        30.12R
DETROIT CITY   PTCLDY    63  50  62 N7        30.08F
DETROIT        MOCLDY    61  51  70 N6        30.09S
FLINT          PTCLDY    58  52  80 CALM      30.11S
GROSSE ILE     PTCLDY    63  52  67 N9        30.07S
HILLSDALE      MOCLDY    63  58  84 CALM      30.11R
HOWELL         PTCLDY    59  53  80 CALM      30.11S

CITY           SKY/WX    TMP DP  RH WIND       PRES   REMARKS
JACKSON        MOCLDY    62  55  77 NE6       30.11R
LAMBERTVILLE   PTCLDY    59  55  88 N3        30.08F
LANSING        PTCLDY    59  54  83 N3        30.12S
LAPEER         NOT AVBL
MASON          PTCLDY    58  53  83 CALM      30.12R
MONROE         PTCLDY    59  54  82 CALM      30.07S
MT. CLEMENS    MOCLDY    57  51  79 NW8       30.07F
PONTIAC        PTCLDY    59  51  75 N5        30.10S
PORT HOPE        N/A     63  56  78 CALM      30.09R
PORT HURON     MOCLDY    50  50 100 CALM      30.09S
TRI CITIES     MOCLDY    63  55  75 N7        30.13R
YPSILANTI      MOCLDY    63  50  62 NE8       30.09F
$$
MIZ043>046-050>051-056>058-064>065-071>073-077>080-240600-
SOUTHWEST LOWER MICHIGAN

CITY           SKY/WX    TMP DP  RH WIND       PRES   REMARKS
BATTLE CREEK   CLEAR     60  53  77 N3        30.12R
BENTON HARBOR  CLEAR     58  55  90 CALM      30.12R
BIG RAPIDS     CLEAR     55  48  77 CALM      30.15R
COLDWATER      CLEAR     62  56  81 NE8       30.10S
HOLLAND        CLEAR     62  52  69 VRB3      30.14R
GRAND RAPIDS   PTCLDY    60  55  83 N6        30.13R
KALAMAZOO      CLEAR     58  53  84 N6        30.12R
MARSHALL       CLOUDY    60  55  84 CALM      30.10S
MUSKEGON       CLEAR     59  52  77 N6        30.15R
$$
MIZ016>042-240600-
NORTHERN LOWER MICHIGAN

CITY           SKY/WX    TMP DP  RH WIND       PRES   REMARKS
ALPENA         MOCLDY    56  49  77 NW6       30.13R
BEAVER ISLAND  CLEAR     50  49  94 CALM      30.17R
CADILLAC       CLEAR     52  50  91 N3        30.16R
CHARLEVOIX     CLEAR     60  51  71 N6        30.18S
FRANKFORT      CLEAR     51  47  86 CALM      30.16S
GAYLORD        CLEAR     50  47  89 CALM      30.16S
GRAYLING       CLEAR     49  49 100 CALM      30.16S
HARBOR SPRINGS CLEAR     57  48  70 NE3       30.15S
HOUGHTON LAKE  CLEAR     54  49  83 N5        30.16R
MANISTEE       CLEAR     48  45  87 E3        30.16S
OSCODA         PTCLDY    55  49  80 CALM      30.11S
PELLSTON       CLEAR     50  48  93 W5        30.16S
TRAVERSE CITY  CLEAR     54  51  90 CALM      30.15R
$$
MIZ007>008-015-240600-
EASTERN UPPER MICHIGAN

CITY           SKY/WX    TMP DP  RH WIND       PRES   REMARKS
KINROSS        CLEAR     48  48 100 W6        30.15S
MACKINAC ISLAN CLEAR     53  47  82 N6        30.15S
NEWBERRY       CLEAR     50  45  83 N3        30.16S
S. S. MARIE    CLEAR     51  46  83 W7        30.14S
$$
MIZ004>006-011>014-085-240600-
CENTRAL UPPER MICHIGAN

CITY           SKY/WX    TMP DP  RH WIND       PRES   REMARKS
MANISTIQUE     CLEAR     47  44  89 CALM      30.17R
ESCANABA       CLEAR     48  45  87 W3        30.17S
MENOMINEE      CLEAR     54  50  87 CALM      30.17S
SAWYER-GWINN   CLEAR     50  46  87 CALM      30.18S
$$
MIZ001>003-009>011-084-240600-
WESTERN UPPER MICHIGAN

CITY           SKY/WX    TMP DP  RH WIND       PRES   REMARKS
IRON MOUNTAIN  CLEAR     50  45  83 CALM      30.19R
HOUGHTON       CLEAR     49  44  83 NW7       30.18R
COPPER HARBOR    N/A     58  45  62 VRB6      30.16S
$$

ABBREVIATIONS USED IN REMARKS
   TC - TEMPERATURE IN CELSIUS
  WCI - WIND CHILL INDEX
   HX - HEAT INDEX
  VSB - VISIBILITY




USA.gov is the U.S. government's official web portal to all federal, state and local government web resources and services.